Regional Weather Roundup
Issued by NWS Cleveland, OH

Home | Current Version | Previous Version | Graphics & Text | Print | Product List | Glossary On
Versions: 1 2 3 4 5 6 7 8 9 10 11 12 13 14 15 16 17 18 19 20 21 22 23 24 25 26 27 28 29 30 31 32 33 34 35 36 37 38 39 40 41 42 43 44 45 46 47 48 49 50
687
ASUS41 KCLE 062012
RWRCLE
OHIO REGIONAL WEATHER ROUNDUP
NATIONAL WEATHER SERVICE WILMINGTON, OH
300 PM EST TUE DEC 06 2016

NOTE: "FAIR" INDICATES FEW OR NO CLOUDS BELOW 12,000 FEET WITH NO
SIGNIFICANT WEATHER AND/OR OBSTRUCTIONS TO VISIBILITY.

OHZ001>008-015>018-024>027-034-035-043-044-062100-
   NORTHWEST OHIO

CITY           SKY/WX    TMP DP  RH WIND       PRES   REMARKS
DEFIANCE       CLOUDY    37  33  85 VRB5      29.71S FOG
FINDLAY        LGT RAIN  37  34  87 NW6       29.68R FOG
TOLEDO EXPRESS LGT RAIN  37  36  96 CALM      29.70R FOG
TOLEDO EXEC    CLOUDY    39  38  96 NE3       29.70R FOG
LIMA           CLOUDY    36  36 100 NW8       29.68R FOG
$$

OHZ009>014-019>023-028>033-038-089-062100-
   NORTHEAST OHIO

CITY           SKY/WX    TMP DP  RH WIND       PRES   REMARKS
CLE-HOPKINS    LGT RAIN  40  35  83 E7        29.70S
CLE-LAKEFRONT  RAIN      39  36  89 SE7       29.68S FOG
CUY CO. ARPT   RAIN      39  37  93 SE9       29.68F FOG
LORAIN-ELYRIA  RAIN      37  34  89 E5        29.67S FOG
ASHTABULA      LGT RAIN  37  34  89 SE12      29.72S FOG
AKRON-CANTON   LGT RAIN  39  36  89 SE12      29.66F FOG
WOOSTER        CLOUDY    38  36  92 SE8       29.66R FOG
MANSFIELD      LGT RAIN  38  38 100 E7        29.64R FOG
YOUNGSTOWN     LGT RAIN  37  34  89 SE13G18   29.69R FOG
$$

OHZ042-051>053-060>062-070>072-077>081-062100-
  SOUTHWEST OHIO

CITY           SKY/WX    TMP DP  RH WIND       PRES   REMARKS
CINC-COVINGTON CLOUDY    43  42  97 W13       29.70R
CINC-LUNKEN    CLOUDY    44  42  93 VRB5      29.72R
HAMILTON       CLOUDY    44  40  85 W12       29.71R
DAYTON         CLOUDY    39  38  96 NW10      29.69R
WRIGHT-PAT AFB NOT AVBL
DAYTON GENERAL CLOUDY    42  38  85 NW9       29.67R
WILMINGTON     CLOUDY    42  41  96 NW7       29.66R
$$

OHZ036-037-039>041-045>050-054>059-063>069-073>076-082>088-062100-
  CENTRAL AND SOUTHEAST OHIO

CITY           SKY/WX    TMP DP  RH WIND       PRES   REMARKS
COLUMBUS       LGT RAIN  42  42 100 SE3       29.64R FOG
OSU AIRPORT    LGT RAIN  43  42  97 E3        29.63F FOG
BOLTON FIELD   CLOUDY    43  43 100 CALM      29.64S FOG
RICKENBACK AFB LGT RAIN  43  43 100 CALM      29.63S
NEWARK         LGT RAIN  42  40  92 CALM      29.64S FOG
MARION         LGT RAIN  40  38  93 SE3       29.65S FOG
LANCASTER      RAIN      44  43  96 E3        29.64S FOG
ZANESVILLE     RAIN      43  42  97 SE3       29.66R FOG
NEW PHILLY     LGT RAIN  41  40  96 SE7       29.68R FOG
$$




USA.gov is the U.S. government's official web portal to all federal, state and local government web resources and services.